Ottumwa, IA

8:49 PM CDT on March 26, 2017 (GMT -0500)
Ottumwa Industrial

Weather History for KOTM - November, 2010

Change the Weather History Date:

Monday, November 22, 2010

  Actual Average Record
Temperature  
Mean Temperature 46 °F 36 °F  
Max Temperature 63 °F 45 °F 67 °F (1966)
Min Temperature 29 °F 26 °F -8 °F (1937)
Degree Days  
Heating Degree Days 19 29  
Month to date heating degree days 446 520  
Since 1 July heating degree days 840 1044  
Cooling Degree Days 0 0  
Month to date cooling degree days 0 0  
Year to date cooling degree days 1105 938  
Moisture  
Dew Point 37 °F    
Average Humidity 86    
Maximum Humidity 100    
Minimum Humidity 72    
Precipitation  
Precipitation 0.07 in 0.07 in 1.64 in (1963)
Month to date precipitation 0.60 1.81  
Year to date precipitation 50.72 35.13  
Sea Level Pressure  
Sea Level Pressure 29.79 in    
Wind  
Wind Speed 13 mph (NW)    
Max Wind Speed 35 mph    
Max Gust Speed 41 mph    
Visibility 8 miles    
Events Rain , Thunderstorm    
T = Trace of Precipitation, MM = Missing Value Source: NWS Daily Summary

Daily Weather History Graph

Daily Weather History Graph

Search for Another Location

Airport or City:

Trip Planner

Search our weather history database for the weather conditions in past years. The results will help you decide how hot, cold, wet, or windy it might be!

Date:

Astronomy

Nov. 22, 2010 Rise Set
Actual Time 7:05 AM CST 4:45 PM CST
Civil Twilight 6:35 AM CST 5:15 PM CST
Nautical Twilight 6:01 AM CST 5:49 PM CST
Astronomical Twilight 5:29 AM CST 6:22 PM CST
Moon 5:27 PM CST (11/22) 8:08 AM CST (11/22)
Length of Visible Light 10h 40m
Length of Day
9h 40m
Full, 99% of the Moon is Illuminated
Nov 22
Full
Nov 28
Last Quarter
Dec 5
New
Dec 13
First Quarter
Dec 21
Full

Hourly Weather History & Observations

Time (CST) Temp. Windchill Dew Point Humidity Pressure Visibility Wind Dir Wind Speed Gust Speed Precip Events Conditions
12:53 AM 41.0 °F 38.0 °F 35.1 °F 79% 29.84 in 10.0 mi North 4.6 mph - N/A   Overcast
1:53 AM 41.0 °F 39.0 °F 36.0 °F 82% 29.83 in 9.0 mi NNE 3.5 mph - N/A   Overcast
2:53 AM 41.0 °F 37.1 °F 36.0 °F 82% 29.81 in 9.0 mi ENE 5.8 mph - N/A   Overcast
3:53 AM 41.0 °F - 37.0 °F 86% 29.81 in 7.0 mi Calm Calm - 0.00 in Rain , Thunderstorm Light Rain
4:24 AM 39.2 °F 34.2 °F 39.2 °F 100% 29.78 in 5.0 mi ESE 6.9 mph - 0.06 in Rain Light Rain
4:53 AM 39.9 °F 36.7 °F 39.9 °F 100% 29.78 in 4.0 mi NE 4.6 mph - 0.07 in   Overcast
5:06 AM 41.0 °F 36.4 °F 39.2 °F 93% 29.76 in 5.0 mi ENE 6.9 mph - N/A   Overcast
5:53 AM 41.0 °F 35.2 °F 39.9 °F 96% 29.73 in 4.0 mi ESE 9.2 mph - N/A   Overcast
6:08 AM 41.0 °F 36.4 °F 39.2 °F 93% 29.72 in 5.0 mi East 6.9 mph - N/A   Overcast
6:53 AM 41.0 °F 35.2 °F 39.9 °F 96% 29.71 in 5.0 mi East 9.2 mph - N/A   Overcast
7:42 AM 42.8 °F 39.3 °F 41.0 °F 93% 29.67 in 4.0 mi ESE 5.8 mph - N/A   Overcast
7:53 AM 42.1 °F 37.1 °F 41.0 °F 96% 29.69 in 3.0 mi SE 8.1 mph - N/A   Overcast
8:31 AM 44.6 °F 40.7 °F 44.6 °F 100% 29.66 in 3.0 mi SE 6.9 mph - N/A   Overcast
8:53 AM 46.9 °F - 46.0 °F 97% 29.67 in 3.0 mi SSE 6.9 mph - N/A   Overcast
9:25 AM 50.0 °F - 48.2 °F 94% 29.64 in 3.0 mi South 10.4 mph - N/A   Scattered Clouds
9:53 AM 53.1 °F - 51.1 °F 93% 29.65 in 5.0 mi South 9.2 mph - N/A   Clear
10:53 AM 57.0 °F - 54.0 °F 89% 29.66 in 7.0 mi West 15.0 mph 21.9 mph N/A   Mostly Cloudy
11:18 AM 60.8 °F - 55.4 °F 82% 29.64 in 10.0 mi WSW 27.6 mph 32.2 mph 0.00 in   Mostly Cloudy
11:53 AM 60.1 °F - 52.0 °F 75% 29.64 in 10.0 mi WSW 24.2 mph 38.0 mph 0.00 in   Partly Cloudy
12:53 PM 48.0 °F - 42.1 °F 80% 29.71 in 9.0 mi WNW 23.0 mph 33.4 mph N/A   Mostly Cloudy
1:12 PM 42.8 °F 33.8 °F 39.2 °F 87% 29.73 in 8.0 mi WNW 21.9 mph 32.2 mph N/A   Overcast
1:53 PM 39.9 °F 30.8 °F 36.0 °F 86% 29.76 in 10.0 mi West 18.4 mph 27.6 mph N/A   Overcast
2:40 PM 39.2 °F 30.8 °F 33.8 °F 81% 29.76 in 10.0 mi WNW 15.0 mph 23.0 mph N/A   Overcast
2:53 PM 39.9 °F 30.8 °F 34.0 °F 79% 29.78 in 10.0 mi WNW 18.4 mph 23.0 mph N/A   Overcast
3:53 PM 37.9 °F 28.5 °F 30.9 °F 76% 29.81 in 10.0 mi NW 17.3 mph 24.2 mph N/A   Overcast
4:53 PM 36.0 °F 26.7 °F 28.9 °F 76% 29.85 in 10.0 mi WNW 15.0 mph 24.2 mph N/A   Overcast
5:53 PM 35.1 °F 27.4 °F 28.0 °F 76% 29.88 in 10.0 mi NW 10.4 mph - N/A   Overcast
6:53 PM 34.0 °F 23.8 °F 27.0 °F 75% 29.92 in 10.0 mi NW 16.1 mph 24.2 mph N/A   Overcast
7:53 PM 32.0 °F 21.6 °F 26.1 °F 79% 29.97 in 10.0 mi NW 15.0 mph 24.2 mph N/A   Overcast
8:53 PM 30.9 °F 18.7 °F 24.1 °F 76% 30.00 in 10.0 mi NW 19.6 mph - N/A   Overcast
9:53 PM 30.0 °F 16.9 °F 23.0 °F 75% 30.02 in 10.0 mi NW 21.9 mph 29.9 mph N/A   Overcast
10:53 PM 30.0 °F 19.5 °F 23.0 °F 75% 30.04 in 10.0 mi NW 13.8 mph - N/A   Overcast
11:53 PM 28.9 °F 18.2 °F 23.0 °F 78% 30.07 in 10.0 mi NW 13.8 mph - N/A   Scattered Clouds